Weather History for Oakes, ND

Change the Weather History Date:

Thursday, November 29, 2012

  Actual Average (KABR) Record (KABR)
Temperature  
Mean Temperature 18 °F 22 °F  
Max Temperature 21 °F 32 °F 55 °F (1951)
Min Temperature 14 °F 12 °F -26 °F (1964)
Degree Days  
Heating Degree Days 48 43  
Month to date heating degree days 1030  
Since 1 July heating degree days 1921  
Cooling Degree Days 0 0  
Month to date cooling degree days 0  
Year to date cooling degree days 525  
Moisture  
Dew Point 18 °F    
Average Humidity 98    
Maximum Humidity 100    
Minimum Humidity 86    
Precipitation  
Precipitation 0.00 in 0.02 in 0.16 in (1985)
Month to date precipitation 0.71  
Year to date precipitation 21.18  
Snow  
Snow 0.00 in - - ()
Month to date snowfall  
Since 1 July snowfall  
Snow Depth -    
Sea Level Pressure  
Sea Level Pressure 30.08 in    
Wind  
Wind Speed 15 mph (NNE)    
Max Wind Speed 22 mph    
Max Gust Speed 23 mph    
Visibility 7 miles    
Events      
T = Trace of Precipitation, MM = Missing Value Source: NWS Daily Summary

Daily Weather History Graph

Daily Weather History Graph

Search for Another Location

Airport:

Trip Planner

Search our weather history database for the weather conditions in past years. The results will help you decide how hot, cold, wet, or windy it might be!

Date:

Astronomy

Nov. 29, 2012 Rise Set
Actual Time 7:52 AM CST 4:48 PM CST
Civil Twilight 7:18 AM CST 5:22 PM CST
Nautical Twilight 6:41 AM CST 6:00 PM CST
Astronomical Twilight 6:05 AM CST 6:36 PM CST
Moon 5:52 PM CST 8:40 AM CST
Length of Visible Light 10h 03m
Length of Day
8h 56m
Full, 99% of the Moon is Illuminated
Nov 29
Full
Dec 6
Last Quarter
Dec 13
New
Dec 19
First Quarter
Dec 28
Full

Hourly Weather History & Observations

Time (CST) Temp. Windchill Dew Point Humidity Pressure Visibility Wind Dir Wind Speed Gust Speed Precip Events Conditions
12:15 AM 19.4 °F 2.8 °F 19.4 °F 100% 30.06 in 6.0 mi NNE 21.9 mph - N/A   Mostly Cloudy
12:35 AM 21.2 °F 6.4 °F 21.2 °F 100% 30.06 in 5.0 mi NNE 18.4 mph - N/A   Mist
12:55 AM 19.4 °F 5.0 °F 19.4 °F 100% 30.07 in 7.0 mi NNE 16.1 mph - N/A   Unknown
1:15 AM 19.4 °F 7.2 °F 19.4 °F 100% 30.08 in 7.0 mi NNE 11.5 mph - N/A   Unknown
1:35 AM 17.6 °F 3.2 °F 17.6 °F 100% 30.07 in 10.0 mi NNE 15.0 mph 20.7 mph N/A   Unknown
1:55 AM 17.6 °F 3.2 °F 17.6 °F 100% 30.08 in 10.0 mi North 15.0 mph 19.6 mph N/A   Unknown
2:15 AM 15.8 °F 1.4 °F 15.8 °F 100% 30.09 in 10.0 mi NNE 13.8 mph 19.6 mph N/A   Overcast
2:35 AM 15.8 °F 1.4 °F 15.8 °F 100% 30.09 in 10.0 mi NNE 13.8 mph - N/A   Overcast
2:55 AM 15.8 °F -0.2 °F 15.8 °F 100% 30.09 in 10.0 mi NNE 17.3 mph - N/A   Overcast
3:15 AM 15.8 °F 2.1 °F 15.8 °F 100% 30.10 in 10.0 mi NNE 12.7 mph - N/A   Unknown
3:35 AM 15.8 °F 0.9 °F 15.8 °F 100% 30.09 in 10.0 mi NNE 15.0 mph 19.6 mph N/A   Unknown
3:55 AM 15.8 °F 0.9 °F 15.8 °F 100% 30.08 in 8.0 mi NNE 15.0 mph - N/A   Unknown
4:15 AM 15.8 °F 0.3 °F 15.8 °F 100% 30.08 in 7.0 mi NNE 16.1 mph - N/A   Unknown
4:35 AM 15.8 °F -0.2 °F 15.8 °F 100% 30.08 in 5.0 mi NNE 17.3 mph 20.7 mph N/A   Overcast
4:55 AM 15.8 °F 0.9 °F 15.8 °F 100% 30.08 in 6.0 mi NNE 15.0 mph - N/A   Overcast
5:15 AM 14.0 °F -2.0 °F 14.0 °F 100% 30.08 in 5.0 mi NNE 16.1 mph - N/A   Mist
5:35 AM 14.0 °F -0.8 °F 14.0 °F 100% 30.09 in 7.0 mi NNE 13.8 mph - N/A   Unknown
5:55 AM 14.0 °F -0.2 °F 14.0 °F 100% 30.08 in 10.0 mi NNE 12.7 mph - N/A   Unknown
6:15 AM 14.0 °F -0.2 °F 14.0 °F 100% 30.09 in 7.0 mi NNE 12.7 mph - N/A   Unknown
6:35 AM 14.0 °F 0.5 °F 14.0 °F 100% 30.10 in 3.0 mi NE 11.5 mph - N/A   Mist
6:55 AM 14.0 °F 1.2 °F 14.0 °F 100% 30.09 in 2.0 mi NE 10.4 mph - N/A   Overcast
7:15 AM 15.8 °F 2.7 °F 15.8 °F 100% 30.09 in 1.8 mi NE 11.5 mph - N/A   Overcast
7:35 AM 15.8 °F 2.7 °F 15.8 °F 100% 30.08 in 0.8 mi NE 11.5 mph 17.3 mph N/A   Overcast
7:55 AM 15.8 °F 3.4 °F 15.8 °F 100% 30.10 in 1.2 mi NNE 10.4 mph - N/A   Mist
8:15 AM 15.8 °F 2.7 °F 15.8 °F 100% 30.10 in 0.8 mi NNE 11.5 mph - N/A   Mist
8:35 AM 15.8 °F 2.7 °F 15.8 °F 100% 30.10 in 1.0 mi NNE 11.5 mph - N/A   Mist
8:55 AM 15.8 °F 2.1 °F 15.8 °F 100% 30.10 in 1.2 mi NNE 12.7 mph - N/A   Mist
9:15 AM 15.8 °F 0.3 °F 15.8 °F 100% 30.10 in 1.2 mi NNE 16.1 mph - N/A   Mist
9:35 AM 15.8 °F 0.9 °F 15.8 °F 100% 30.11 in 3.0 mi NNE 15.0 mph - N/A   Overcast
9:55 AM 15.8 °F 2.1 °F 15.8 °F 100% 30.12 in 2.5 mi NNE 12.7 mph - N/A   Overcast
10:15 AM 15.8 °F 2.1 °F 15.8 °F 100% 30.12 in 5.0 mi NNE 12.7 mph - N/A   Overcast
10:35 AM 15.8 °F 0.9 °F 15.8 °F 100% 30.12 in 7.0 mi NNE 15.0 mph - N/A   Unknown
10:55 AM 15.8 °F 0.3 °F 15.8 °F 100% 30.10 in 7.0 mi NNE 16.1 mph - N/A   Unknown
11:15 AM 17.6 °F 3.7 °F 17.6 °F 100% 30.10 in 7.0 mi NE 13.8 mph - N/A   Unknown
11:35 AM 17.6 °F 3.2 °F 17.6 °F 100% 30.10 in 7.0 mi NNE 15.0 mph 18.4 mph N/A   Unknown
11:55 AM 17.6 °F 3.7 °F 17.6 °F 100% 30.09 in 5.0 mi NNE 13.8 mph - N/A   Mist
12:15 PM 17.6 °F 2.7 °F 17.6 °F 100% 30.07 in 5.0 mi NNE 16.1 mph - N/A   Overcast
12:35 PM 17.6 °F 2.7 °F 17.6 °F 100% 30.07 in 5.0 mi NNE 16.1 mph - N/A   Overcast
12:55 PM 17.6 °F 1.7 °F 17.6 °F 100% 30.06 in 5.0 mi NE 18.4 mph - N/A   Overcast
1:15 PM 17.6 °F 2.2 °F 17.6 °F 100% 30.05 in 5.0 mi NE 17.3 mph - N/A   Mist
1:35 PM 17.6 °F 3.2 °F 17.6 °F 100% 30.06 in 5.0 mi NE 15.0 mph 23.0 mph N/A   Mist
1:55 PM 19.4 °F 5.5 °F 19.4 °F 100% 30.05 in 5.0 mi NNE 15.0 mph - N/A   Mist
2:15 PM 19.4 °F 5.5 °F 19.4 °F 100% 30.05 in 4.0 mi NNE 15.0 mph - N/A   Mist
2:35 PM 19.4 °F 5.0 °F 19.4 °F 100% 30.04 in 4.0 mi NNE 16.1 mph - N/A   Mist
2:55 PM 19.4 °F 5.0 °F 19.4 °F 100% 30.03 in 4.0 mi NE 16.1 mph - N/A   Mist
3:15 PM 19.4 °F 6.0 °F 19.4 °F 100% 30.03 in 4.0 mi NE 13.8 mph - N/A   Overcast
3:35 PM 19.4 °F 5.5 °F 19.4 °F 100% 30.05 in 4.0 mi NE 15.0 mph 18.4 mph N/A   Overcast
3:55 PM 21.2 °F 8.3 °F 21.2 °F 100% 30.05 in 5.0 mi NE 13.8 mph - N/A   Overcast
4:15 PM 19.4 °F 6.0 °F 19.4 °F 100% 30.05 in 5.0 mi NNE 13.8 mph - N/A   Mist
4:35 PM 19.4 °F 5.0 °F 19.4 °F 100% 30.05 in 5.0 mi NNE 16.1 mph - N/A   Mist
4:55 PM 21.2 °F 6.8 °F 21.2 °F 100% 30.03 in 5.0 mi NE 17.3 mph - N/A   Mist
5:15 PM 21.2 °F 7.3 °F 21.2 °F 100% 30.04 in 8.0 mi NNE 16.1 mph - N/A   Unknown
5:35 PM 21.2 °F 7.8 °F 21.2 °F 100% 30.04 in 8.0 mi NNE 15.0 mph - N/A   Unknown
5:55 PM 21.2 °F 8.3 °F 21.2 °F 100% 30.05 in 9.0 mi NE 13.8 mph - N/A   Unknown
6:15 PM 21.2 °F 7.8 °F 21.2 °F 100% 30.05 in 10.0 mi NE 15.0 mph - N/A   Overcast
6:35 PM 21.2 °F 7.3 °F 21.2 °F 100% 30.06 in 10.0 mi NE 16.1 mph 23.0 mph N/A   Overcast
6:55 PM 21.2 °F 8.3 °F 19.4 °F 93% 30.06 in 10.0 mi NE 13.8 mph 19.6 mph N/A   Overcast
7:15 PM 21.2 °F 10.1 °F 19.4 °F 93% 30.08 in 10.0 mi NNE 10.4 mph 16.1 mph N/A   Overcast
7:35 PM 21.2 °F 9.5 °F 19.4 °F 93% 30.09 in 10.0 mi NNE 11.5 mph - N/A   Unknown
7:55 PM 21.2 °F 8.9 °F 19.4 °F 93% 30.10 in 10.0 mi NNE 12.7 mph - N/A   Unknown
8:15 PM 21.2 °F 8.9 °F 19.4 °F 93% 30.09 in 10.0 mi NE 12.7 mph - N/A   Unknown
8:35 PM 21.2 °F 9.5 °F 19.4 °F 93% 30.10 in 10.0 mi NE 11.5 mph - N/A   Unknown
8:55 PM 21.2 °F 10.9 °F 19.4 °F 93% 30.09 in 10.0 mi NE 9.2 mph - N/A   Unknown
9:15 PM 21.2 °F 9.5 °F 19.4 °F 93% 30.08 in 10.0 mi NE 11.5 mph - N/A   Unknown
9:35 PM 21.2 °F 13.6 °F 17.6 °F 86% 30.10 in 10.0 mi NNE 5.8 mph - N/A   Unknown
9:55 PM 21.2 °F 10.1 °F 17.6 °F 86% 30.12 in 10.0 mi NNW 10.4 mph - N/A   Mostly Cloudy
10:15 PM 21.2 °F 11.7 °F 17.6 °F 86% 30.10 in 10.0 mi North 8.1 mph - N/A   Overcast
10:35 PM 21.2 °F 11.7 °F 17.6 °F 86% 30.10 in 10.0 mi NNE 8.1 mph - N/A   Overcast
10:55 PM 21.2 °F 11.7 °F 17.6 °F 86% 30.10 in 10.0 mi North 8.1 mph - N/A   Overcast
11:15 PM 19.4 °F 9.5 °F 17.6 °F 93% 30.10 in 10.0 mi North 8.1 mph - N/A   Overcast
11:35 PM 19.4 °F 8.6 °F 17.6 °F 93% 30.11 in 10.0 mi North 9.2 mph - N/A   Overcast
11:55 PM 19.4 °F 8.6 °F 17.6 °F 93% 30.10 in 10.0 mi NNE 9.2 mph - N/A   Overcast